When you browse on this site, cookies collect data to enhance your experience and personalize the content and advertising you see.
Visit our Privacy Policy to learn more. By continuing to use the site, you agree to this use of cookies and data.
  • în România
  • Lista ţărilor
  • Pe 7 zile
  • Temperatura apei
  • Meteo pe hartă
  • Widget-uri
  • user-avatar
    Intrare

    Meteo pe oră la Selfoss

    Astăzi, 24 Februarie, Luni

    Timp Temperatura Precipitaţii Vânt Presiune Umiditate
    00:00 -1°C° 0.8 mm 5 m/s 748 mmHg 90%
    01:00 -1°C° 0.8 mm 6 m/s 748 mmHg 84%
    02:00 -1°C° 0.8 mm 7 m/s 747 mmHg 79%
    03:00 -1°C° 0.4 mm 7 m/s 747 mmHg 79%
    04:00 -1°C° 0.4 mm 6 m/s 746 mmHg 79%
    05:00 -1°C° 0 mm 6 m/s 745 mmHg 79%
    06:00 -1°C° 0.3 mm 5 m/s 744 mmHg 80%
    07:00 -1°C° 0.3 mm 4 m/s 744 mmHg 82%
    08:00 -2°C° 0.3 mm 4 m/s 744 mmHg 83%
    09:00 0°C° 0.8 mm 3 m/s 743 mmHg 87%
    10:00 0°C° 0.8 mm 3 m/s 742 mmHg 92%
    11:00 0°C° 0 mm 3 m/s 742 mmHg 93%
    12:00 0°C° 0.5 mm 3 m/s 741 mmHg 93%
    13:00 0°C° 0.5 mm 3 m/s 741 mmHg 93%
    14:00 +1°C° 0.5 mm 2 m/s 740 mmHg 94%
    15:00 +1°C° 0.1 mm 2 m/s 740 mmHg 91%
    16:00 -1°C° 0.1 mm 2 m/s 740 mmHg 88%
    17:00 -2°C° 0.1 mm 2 m/s 739 mmHg 85%
    18:00 -2°C° 0.1 mm 2 m/s 739 mmHg 84%
    19:00 -3°C° 0.1 mm 2 m/s 739 mmHg 83%
    20:00 -4°C° 0.1 mm 2 m/s 739 mmHg 82%
    21:00 -2°C° 0.1 mm 1 m/s 739 mmHg 83%
    22:00 -2°C° 0.1 mm 1 m/s 739 mmHg 83%
    23:00 -2°C° 0.1 mm 1 m/s 739 mmHg 84%

    Mâine, 25 Februarie, Marţi

    Timp Temperatura Precipitaţii Vânt Presiune Umiditate
    00:00 -3°C° 0.1 mm 1 m/s 738 mmHg 85%
    01:00 -5°C° 0.1 mm 2 m/s 738 mmHg 86%
    02:00 -5°C° 0.1 mm 2 m/s 738 mmHg 87%
    03:00 -6°C° 0 mm 3 m/s 738 mmHg 86%
    04:00 -6°C° 0 mm 3 m/s 738 mmHg 86%
    05:00 -7°C° 0 mm 3 m/s 738 mmHg 86%
    06:00 -7°C° 0 mm 3 m/s 738 mmHg 84%
    07:00 -8°C° 0 mm 4 m/s 738 mmHg 83%
    08:00 -8°C° 0 mm 4 m/s 738 mmHg 82%
    09:00 -8°C° 0 mm 4 m/s 738 mmHg 80%
    10:00 -7°C° 0 mm 4 m/s 738 mmHg 79%
    11:00 -7°C° 0 mm 4 m/s 738 mmHg 78%
    12:00 -6°C° 0 mm 3 m/s 738 mmHg 76%
    13:00 -5°C° 0 mm 3 m/s 739 mmHg 75%
    14:00 -5°C° 0 mm 3 m/s 739 mmHg 73%
    15:00 -7°C° 0 mm 4 m/s 739 mmHg 73%
    16:00 -7°C° 0 mm 4 m/s 739 mmHg 72%
    17:00 -7°C° 0 mm 5 m/s 739 mmHg 72%
    18:00 -8°C° 0 mm 5 m/s 740 mmHg 71%
    19:00 -9°C° 0 mm 6 m/s 741 mmHg 71%
    20:00 -9°C° 0 mm 6 m/s 741 mmHg 70%
    21:00 -9°C° 0 mm 7 m/s 742 mmHg 69%
    22:00 -9°C° 0 mm 7 m/s 742 mmHg 69%
    23:00 -10°C° 0 mm 8 m/s 743 mmHg 68%

    Poimâine, 26 Februarie, Miercuri

    Timp Temperatura Precipitaţii Vânt Presiune Umiditate
    00:00 -11°C° 0 mm 8 m/s 743 mmHg 68%
    01:00 -11°C° 0 mm 7 m/s 743 mmHg 68%
    02:00 -12°C° 0 mm 7 m/s 744 mmHg 68%
    03:00 -12°C° 0 mm 7 m/s 744 mmHg 69%
    04:00 -12°C° 0 mm 7 m/s 744 mmHg 69%
    05:00 -12°C° 0 mm 6 m/s 744 mmHg 69%
    06:00 -12°C° 0 mm 6 m/s 744 mmHg 70%
    07:00 -12°C° 0 mm 6 m/s 745 mmHg 70%
    08:00 -12°C° 0 mm 6 m/s 745 mmHg 70%
    09:00 -12°C° 0 mm 6 m/s 745 mmHg 70%
    10:00 -11°C° 0 mm 6 m/s 745 mmHg 71%
    11:00 -10°C° 0 mm 6 m/s 745 mmHg 72%
    12:00 -10°C° 0 mm 6 m/s 745 mmHg 72%
    13:00 -10°C° 0 mm 6 m/s 745 mmHg 72%
    14:00 -10°C° 0 mm 6 m/s 745 mmHg 72%
    15:00 -10°C° 0 mm 6 m/s 745 mmHg 71%
    16:00 -11°C° 0 mm 6 m/s 745 mmHg 71%
    17:00 -11°C° 0 mm 6 m/s 745 mmHg 70%
    18:00 -12°C° 0 mm 6 m/s 745 mmHg 70%
    19:00 -12°C° 0 mm 6 m/s 745 mmHg 69%
    20:00 -14°C° 0 mm 6 m/s 746 mmHg 69%
    21:00 -14°C° 0 mm 6 m/s 746 mmHg 69%
    22:00 -12°C° 0 mm 6 m/s 746 mmHg 69%
    23:00 -12°C° 0 mm 6 m/s 745 mmHg 69%

    27 Februarie, Joi

    Timp Temperatura Precipitaţii Vânt Presiune Umiditate
    00:00 -12°C° 0 mm 6 m/s 745 mmHg 69%
    01:00 -14°C° 0 mm 6 m/s 745 mmHg 70%
    02:00 -14°C° 0 mm 7 m/s 745 mmHg 70%
    03:00 -14°C° 0 mm 6 m/s 745 mmHg 69%
    04:00 -14°C° 0 mm 6 m/s 745 mmHg 68%
    05:00 -14°C° 0 mm 6 m/s 745 mmHg 68%
    06:00 -14°C° 0 mm 6 m/s 745 mmHg 69%
    07:00 -14°C° 0 mm 6 m/s 745 mmHg 70%
    08:00 -14°C° 0 mm 6 m/s 745 mmHg 71%
    09:00 -12°C° 0.1 mm 6 m/s 745 mmHg 72%
    10:00 -12°C° 0.1 mm 6 m/s 745 mmHg 73%
    11:00 -11°C° 0.1 mm 6 m/s 744 mmHg 74%
    12:00 -12°C° 0.1 mm 7 m/s 744 mmHg 73%
    13:00 -11°C° 0.1 mm 8 m/s 743 mmHg 72%
    14:00 -11°C° 0.1 mm 9 m/s 743 mmHg 70%
    15:00 -12°C° 0 mm 10 m/s 742 mmHg 69%
    16:00 -12°C° 0 mm 11 m/s 742 mmHg 67%
    17:00 -12°C° 0 mm 12 m/s 741 mmHg 65%
    18:00 -12°C° 0 mm 12 m/s 741 mmHg 66%
    19:00 -12°C° 0 mm 12 m/s 741 mmHg 66%
    20:00 -12°C° 0 mm 13 m/s 740 mmHg 66%
    21:00 -11°C° 2 mm 11 m/s 740 mmHg 75%
    22:00 -9°C° 2 mm 9 m/s 740 mmHg 84%
    23:00 -5°C° 2 mm 6 m/s 741 mmHg 92%

    28 Februarie, Vineri

    Timp Temperatura Precipitaţii Vânt Presiune Umiditate
    00:00 -8°C° 1.8 mm 6 m/s 740 mmHg 92%
    01:00 -8°C° 1.8 mm 5 m/s 740 mmHg 92%
    02:00 -10°C° 1.8 mm 5 m/s 740 mmHg 92%
    03:00 -9°C° 0.2 mm 4 m/s 741 mmHg 91%
    04:00 -9°C° 0.2 mm 3 m/s 741 mmHg 91%
    05:00 -9°C° 0.2 mm 3 m/s 741 mmHg 90%
    06:00 -10°C° 0.1 mm 3 m/s 741 mmHg 90%
    07:00 -12°C° 0.1 mm 4 m/s 741 mmHg 90%
    08:00 -14°C° 0.1 mm 4 m/s 742 mmHg 90%
    09:00 -12°C° 0 mm 4 m/s 742 mmHg 89%
    10:00 -12°C° 0 mm 5 m/s 742 mmHg 87%
    11:00 -12°C° 0 mm 5 m/s 742 mmHg 86%
    12:00 -11°C° 0 mm 5 m/s 741 mmHg 84%
    13:00 -10°C° 0 mm 5 m/s 741 mmHg 82%
    14:00 -10°C° 0 mm 5 m/s 740 mmHg 80%
    15:00 -10°C° 0 mm 6 m/s 740 mmHg 78%
    16:00 -11°C° 0 mm 6 m/s 740 mmHg 76%
    17:00 -12°C° 0 mm 6 m/s 739 mmHg 75%
    18:00 -11°C° 0 mm 6 m/s 739 mmHg 72%
    19:00 -12°C° 0 mm 7 m/s 738 mmHg 70%
    20:00 -12°C° 0 mm 7 m/s 738 mmHg 67%
    21:00 -12°C° 0 mm 7 m/s 738 mmHg 69%
    22:00 -13°C° 0 mm 7 m/s 737 mmHg 72%
    23:00 -13°C° 0 mm 7 m/s 737 mmHg 74%

    29 Februarie, Sâmbătă

    Timp Temperatura Precipitaţii Vânt Presiune Umiditate
    00:00 -12°C° 0 mm 8 m/s 736 mmHg 73%
    01:00 -12°C° 0 mm 8 m/s 736 mmHg 73%
    02:00 -11°C° 0 mm 8 m/s 735 mmHg 72%
    03:00 -11°C° 0 mm 8 m/s 734 mmHg 73%
    04:00 -11°C° 0 mm 9 m/s 734 mmHg 75%
    05:00 -11°C° 0 mm 9 m/s 734 mmHg 76%
    06:00 -11°C° 0.2 mm 9 m/s 733 mmHg 79%
    07:00 -10°C° 0.2 mm 10 m/s 733 mmHg 82%
    08:00 -10°C° 0.2 mm 10 m/s 732 mmHg 84%
    09:00 -9°C° 0.2 mm 10 m/s 732 mmHg 80%
    10:00 -8°C° 0.2 mm 11 m/s 731 mmHg 76%
    11:00 -7°C° 0.2 mm 11 m/s 731 mmHg 72%
    12:00 -7°C° 0 mm 12 m/s 731 mmHg 71%
    13:00 -7°C° 0 mm 12 m/s 730 mmHg 69%
    14:00 -6°C° 0 mm 12 m/s 730 mmHg 68%
    15:00 -7°C° 0 mm 12 m/s 730 mmHg 70%
    16:00 -7°C° 0 mm 11 m/s 730 mmHg 72%
    17:00 -7°C° 0 mm 10 m/s 730 mmHg 74%
    18:00 -8°C° 0.1 mm 9 m/s 729 mmHg 75%
    19:00 -7°C° 0.1 mm 8 m/s 729 mmHg 77%
    20:00 -7°C° 0.1 mm 8 m/s 729 mmHg 79%
    21:00 -7°C° 0.1 mm 7 m/s 728 mmHg 81%
    22:00 -8°C° 0.1 mm 7 m/s 728 mmHg 82%
    23:00 -8°C° 0.1 mm 6 m/s 727 mmHg 83%
    Arată mai mult